This demonstration page uses our WeatherBlox Daily Observations layout. Learn more.

Left ArrowRight Arrow

41.55636, -103.73856

Hourly Observations for February 7, 2016

Temp ( °F °C ) Dew Point ( °F °C ) Humidity (%) Winds ( mph kmh ) Pressure ( in mb ) Visibility ( mi km ) Precip ( " mm )
12:53 am 00:53 Clear 29 -1.7 20 -6.7 69 69 NW 10 17 30.19 1022 10 16.0934 N/A
1:53 am 01:53 Partly Cloudy 26 -3.3 18 -7.8 71 71 N N/A 30.21 1023 10 16.0934 N/A
2:53 am 02:53 Cloudy 29 -1.7 20 -6.7 69 69 WNW 8 13 30.21 1023 10 16.0934 N/A
3:53 am 03:53 Cloudy 31 -0.6 20 -6.7 64 64 WNW 12 19 30.22 1023 10 16.0934 N/A
4:53 am 04:53 Cloudy 31 -0.6 21 -6.1 67 67 NW 14 22 30.24 1024 10 16.0934 N/A
5:53 am 05:53 Cloudy with Light Snow 31 -0.6 26 -3.3 82 82 NW 13 20 30.27 1025 4 6.43736 N/A
6:18 am 06:18 Cloudy with Light Snow 30 -1 27 -3 86 86 WNW 16 26 30.36 1028 3 4.82802 N/A
6:32 am 06:32 Cloudy with Light Snow 30 -1 27 -3 86 86 WNW 13 20 30.36 1028 5 8.0467 N/A
6:53 am 06:53 Cloudy 31 -0.6 24 -4.4 76 76 WNW 14 22 30.29 1026 10 16.0934 N/A
7:53 am 07:53 Cloudy 30 -1.1 23 -5 75 75 WNW 20 31 30.33 1027 10 16.0934 N/A
8:53 am 08:53 Cloudy 31 -0.6 22 -5.6 69 69 WNW 15 24 30.34 1028 10 16.0934 N/A
9:53 am 09:53 Cloudy 34 1.1 20 -6.7 56 56 NW 17 28 30.36 1028 10 16.0934 N/A
10:53 am 10:53 Cloudy 34 1.1 17 -8.3 50 50 NW 24 39 30.39 1029 10 16.0934 N/A
11:53 am 11:53 Cloudy 34 1.1 15 -9.4 46 46 NW 30 48 30.38 1029 10 16.0934 N/A
12:53 pm 12:53 Cloudy 34 1.1 14 -10 44 44 NW 31 50 30.37 1028 10 16.0934 N/A
1:53 pm 13:53 Cloudy 34 1.1 14 -10 44 44 NW 32 52 30.37 1028 10 16.0934 N/A
2:53 pm 14:53 Cloudy 34 1.1 17 -8.3 50 50 NW 21 33 30.37 1029 10 16.0934 N/A
3:53 pm 15:53 Cloudy 33 0.6 16 -8.9 49 49 NW 28 44 30.38 1029 10 16.0934 N/A
4:53 pm 16:53 Cloudy 32 undefined 16 -8.9 52 52 NW 21 33 30.4 1029 10 16.0934 N/A
5:53 pm 17:53 Clear 29 -1.7 16 -8.9 58 58 NW 18 30 30.42 1030 10 16.0934 N/A
6:53 pm 18:53 Clear 29 -1.7 15 -9.4 56 56 NW 18 30 30.43 1031 10 16.0934 N/A
7:53 pm 19:53 Clear 27 -2.8 14 -10 58 58 WNW 15 24 30.45 1031 10 16.0934 N/A
8:53 pm 20:53 Clear 26 -3.3 14 -10 60 60 WNW 14 22 30.46 1032 10 16.0934 N/A
9:53 pm 21:53 Clear 26 -3.3 13 -10.6 57 57 WNW 13 20 30.46 1032 10 16.0934 N/A
10:53 pm 22:53 Clear 25 -3.9 13 -10.6 60 60 WNW 14 22 30.46 1032 10 16.0934 N/A
11:53 pm 23:53 Clear 26 -3.3 13 -10.6 57 57 WNW 17 28 30.46 1032 10 16.0934 N/A

Powered by AerisWeather